This is the latest recevied weather packets stored in our database for station/object HP1MRA-15. If no packets are shown the sender has not sent any weather packets the latest 10 day(s).
| Time | Temp. | Humidity | Pressure | Rain* | Wind** | Luminosity | Snow |
|---|---|---|---|---|---|---|---|
| 1788547618 | 37.22° C | 60% | 1000.2 hPa | 0 mm | - | - | - |
| 1788547317 | 37.22° C | 61% | 1000.3 hPa | 0 mm | - | - | - |
| 1788547015 | 37.22° C | 61% | 1000.4 hPa | 0 mm | - | - | - |
| 1788546717 | 37.22° C | 62% | 1000.5 hPa | 0 mm | - | - | - |
| 1788546417 | 37.22° C | 62% | 1000.6 hPa | 0 mm | - | - | - |
| 1788546115 | 37.78° C | 62% | 1000.6 hPa | 0 mm | - | - | - |
| 1788545817 | 37.78° C | 63% | 1000.7 hPa | 0 mm | - | - | - |
| 1788545518 | 37.78° C | 61% | 1000.8 hPa | 0 mm | - | - | - |
| 1788545217 | 37.78° C | 62% | 1001 hPa | 0 mm | - | - | - |
| 1788545215 | 37.78° C | 62% | 1001 hPa | 0 mm | - | - | - |
| 1788544917 | 38.33° C | 61% | 1001 hPa | 0 mm | - | - | - |
| 1788544626 | 37.78° C | 63% | 1001.2 hPa | 0 mm | - | - | - |
| 1788544317 | 38.33° C | 60% | 1001.2 hPa | 0 mm | - | - | - |
| 1788544314 | 38.33° C | 61% | 1001.2 hPa | 0 mm | - | - | - |
| 1788544017 | 38.89° C | 64% | 1001.3 hPa | 0 mm | - | - | - |
| 1788543717 | 38.89° C | 65% | 1001.4 hPa | 0 mm | - | - | - |
| 1788543416 | 38.33° C | 65% | 1001.5 hPa | 0 mm | - | - | - |
| 1788543415 | 38.33° C | 64% | 1001.4 hPa | 0 mm | - | - | - |
| 1788543116 | 38.33° C | 63% | 1001.6 hPa | 0 mm | - | - | - |
| 1788542816 | 37.78° C | 65% | 1001.7 hPa | 0 mm | - | - | - |
| 1788542515 | 37.22° C | 66% | 1001.9 hPa | 0 mm | - | - | - |
| 1788542216 | 36.67° C | 65% | 1002.1 hPa | 0 mm | - | - | - |
| 1788541916 | 36.67° C | 63% | 1002.3 hPa | 0 mm | - | - | - |
| 1788541616 | 36.67° C | 64% | 1002.3 hPa | 0 mm | - | - | - |
| 1788541614 | 36.67° C | 64% | 1002.4 hPa | 0 mm | - | - | - |
* Rain latest hour (hover to see other rain measurements)
** Current wind speed in m/s (hover to see current wind gust speed)